This is the latest recevied weather packets stored in our database for station/object RODN. If no packets are shown the sender has not sent any weather packets the latest 1 day(s).
| Time | Temp. | Humidity | Pressure | Rain* | Wind** | Luminosity | Snow |
|---|---|---|---|---|---|---|---|
| 1778078629 | 17.78° C | 93% | 1014.6 hPa | - | - | - | - |
| 1778078029 | 17.78° C | 93% | 1014.6 hPa | - | - | - | - |
| 1778077425 | 17.78° C | 93% | 1014.6 hPa | - | - | - | - |
| 1778076826 | 17.78° C | 93% | 1014.6 hPa | - | - | - | - |
| 1778075627 | 17.78° C | 100% | 1014.9 hPa | - | - | - | - |
| 1778075026 | 17.78° C | 100% | 1014.9 hPa | - | - | - | - |
| 1778070826 | 17.78° C | 93% | 1014.2 hPa | - | - | - | - |
| 1778069627 | 17.78° C | 93% | 1014.2 hPa | - | - | - | - |
| 1778067827 | 18.89° C | 88% | 1013.2 hPa | - | - | - | - |
| 1778063627 | 21.67° C | 83% | 1013.2 hPa | - | - | - | - |
| 1778061230 | 21.67° C | 78% | 1019.6 hPa | - | - | - | - |
| 1778060752 | 21.67° C | 78% | 1019.6 hPa | - | - | - | - |
| 1778059427 | 21.67° C | 78% | 1012.5 hPa | - | - | - | - |
| 1778058230 | 22.78° C | 83% | 1019.6 hPa | - | - | - | - |
| 1778057630 | 22.78° C | 83% | 1020 hPa | - | - | - | - |
| 1778055225 | 22.78° C | 83% | 1020 hPa | - | - | - | - |
| 1778054626 | 22.78° C | 83% | 1020 hPa | - | - | - | - |
| 1778053428 | - | - | 1020 hPa | - | - | - | - |
| 1778052227 | - | - | 1020 hPa | - | - | - | - |
| 1778051628 | - | - | 1020 hPa | - | - | - | - |
| 1778049825 | 21.67° C | 94% | 1020.3 hPa | - | - | - | - |
| 1778049232 | 21.67° C | 94% | 1014.6 hPa | - | - | - | - |
| 1778048626 | 21.67° C | 94% | 1014.6 hPa | - | - | - | - |
| 1778047430 | 22.78° C | 88% | 1020.3 hPa | - | - | - | - |
| 1778046827 | 22.78° C | 88% | 1014.9 hPa | - | - | - | - |
* Rain since midnight (hover to see other rain measurements)
** Current wind speed in m/s (hover to see current wind gust speed)